Location: York
(31.8935°S, 116.7682°E)
Time: 18:54:59
(UTC+08:00)

DX 1 - Pass Details

Date: 30 July 2021
Orbit: 618 x 631 km, 98.4° (Epoch: 16 September)

Event Time Altitude Azimuth Distance (km) Brightness Sun altitude
Rises 20:13:16 0° 332° (NNW) 2,893 ? -33.4°
Reaches altitude 10° 20:16:26 10° 306° (NW) 1,996 ? -34.1°
Maximum altitude 20:18:42 14° 274° (W) 1,750 ? -34.6°
Drops below altitude 10° 20:21:00 10° 243° (WSW) 2,007 ? -35.0°
Sets 20:24:13 0° 217° (SW) 2,923 ? -35.7°
